Location: *
(45.0500°N, 12.0500°E)
Time: 09:12:59
(UTC+00:00)

SL-08 RB Rocket - Pass Details

Date: 09 April 2020
Orbit: 646 x 685 km, 97.8° (Epoch: 06 June)

Event Time Altitude Azimuth Distance (km) Brightness Sun altitude
Exits shadow 18:56:15 - 162° (SSE) 2,446 6.2 -11.9°
Reaches altitude 10° 18:57:09 10° 161° (SSE) 2,081 5.9 -12.0°
Maximum altitude 19:01:42 80° 75° (ENE) 687 3.7 -12.8°
Drops below altitude 10° 19:06:20 10° 349° (N) 2,121 6.8 -13.5°
Sets 19:08:36 0° 349° (NNW) 3,046 7.7 -13.9°
